EN

Hourly Weather Nesebyr

Today, 25 November, Wednesday

Time Temperature Precipitation Wind Pressure Humidity
00:00 +4°C° 0 mm 4 mps 769 mmHg 75%
01:00 +4°C° 0 mm 4 mps 769 mmHg 76%
02:00 +4°C° 0 mm 4 mps 769 mmHg 75%
03:00 +4°C° 0 mm 4 mps 769 mmHg 76%
04:00 +3°C° 0 mm 4 mps 769 mmHg 77%
05:00 +3°C° 0 mm 4 mps 768 mmHg 78%
06:00 +3°C° 0 mm 3 mps 769 mmHg 78%
07:00 +3°C° 0 mm 3 mps 769 mmHg 78%
08:00 +3°C° 0 mm 3 mps 769 mmHg 79%
09:00 +4°C° 0 mm 3 mps 769 mmHg 73%
10:00 +7°C° 0 mm 3 mps 769 mmHg 68%
11:00 +8°C° 0 mm 3 mps 769 mmHg 63%
12:00 +8°C° 0 mm 3 mps 768 mmHg 61%
13:00 +9°C° 0 mm 3 mps 768 mmHg 60%
14:00 +9°C° 0 mm 3 mps 767 mmHg 58%
15:00 +8°C° 0 mm 2 mps 767 mmHg 62%
16:00 +8°C° 0 mm 2 mps 767 mmHg 65%
17:00 +8°C° 0 mm 1 mps 767 mmHg 69%
18:00 +7°C° 0 mm 1 mps 767 mmHg 70%
19:00 +7°C° 0 mm 1 mps 767 mmHg 71%
20:00 +7°C° 0 mm 1 mps 767 mmHg 72%
21:00 +6°C° 0 mm 1 mps 767 mmHg 72%
22:00 +6°C° 0 mm 1 mps 767 mmHg 72%
23:00 +6°C° 0 mm 1 mps 767 mmHg 72%

Tomorrow, 26 November, Thursday

Time Temperature Precipitation Wind Pressure Humidity
00:00 +6°C° 0 mm 1 mps 767 mmHg 73%
01:00 +6°C° 0 mm 1 mps 767 mmHg 73%
02:00 +5°C° 0 mm 1 mps 767 mmHg 73%
03:00 +5°C° 0 mm 1 mps 767 mmHg 73%
04:00 +5°C° 0 mm 1 mps 767 mmHg 72%
05:00 +5°C° 0 mm 1 mps 767 mmHg 72%
06:00 +5°C° 0 mm 1 mps 767 mmHg 71%
07:00 +5°C° 0 mm 1 mps 767 mmHg 70%
08:00 +5°C° 0 mm 1 mps 767 mmHg 68%
09:00 +7°C° 0 mm 1 mps 767 mmHg 63%
10:00 +9°C° 0 mm 1 mps 767 mmHg 58%
11:00 +11°C° 0 mm 1 mps 767 mmHg 52%
12:00 +11°C° 0 mm 1 mps 767 mmHg 51%
13:00 +12°C° 0 mm 1 mps 767 mmHg 50%
14:00 +12°C° 0 mm 1 mps 767 mmHg 49%
15:00 +11°C° 0 mm 1 mps 766 mmHg 55%
16:00 +10°C° 0 mm 1 mps 766 mmHg 61%
17:00 +9°C° 0 mm 1 mps 766 mmHg 67%
18:00 +8°C° 0 mm 1 mps 766 mmHg 70%
19:00 +7°C° 0 mm 0 mps 766 mmHg 73%
20:00 +7°C° 0 mm 0 mps 766 mmHg 76%
21:00 +6°C° 0 mm 0 mps 766 mmHg 78%
22:00 +6°C° 0 mm 0 mps 766 mmHg 80%
23:00 +7°C° 0 mm 1 mps 766 mmHg 82%

Day after tomorrow, 27 November, Friday

Time Temperature Precipitation Wind Pressure Humidity
00:00 +7°C° 0 mm 1 mps 766 mmHg 83%
01:00 +7°C° 0 mm 1 mps 766 mmHg 83%
02:00 +7°C° 0 mm 1 mps 766 mmHg 84%
03:00 +7°C° 0 mm 1 mps 766 mmHg 85%
04:00 +6°C° 0 mm 1 mps 766 mmHg 86%
05:00 +6°C° 0 mm 1 mps 766 mmHg 87%
06:00 +6°C° 0 mm 1 mps 766 mmHg 88%
07:00 +7°C° 0 mm 1 mps 766 mmHg 88%
08:00 +7°C° 0 mm 1 mps 766 mmHg 89%
09:00 +8°C° 0 mm 1 mps 766 mmHg 82%
10:00 +10°C° 0 mm 1 mps 766 mmHg 76%
11:00 +12°C° 0 mm 1 mps 766 mmHg 69%
12:00 +13°C° 0 mm 1 mps 765 mmHg 66%
13:00 +13°C° 0 mm 1 mps 765 mmHg 62%
14:00 +14°C° 0 mm 1 mps 764 mmHg 59%
15:00 +13°C° 0 mm 1 mps 764 mmHg 64%
16:00 +11°C° 0 mm 1 mps 764 mmHg 70%
17:00 +9°C° 0 mm 0 mps 764 mmHg 75%
18:00 +10°C° 0 mm 1 mps 764 mmHg 77%
19:00 +9°C° 0 mm 1 mps 764 mmHg 79%
20:00 +9°C° 0 mm 1 mps 764 mmHg 80%
21:00 +9°C° 0 mm 1 mps 764 mmHg 80%
22:00 +8°C° 0 mm 1 mps 764 mmHg 79%
23:00 +8°C° 0 mm 1 mps 764 mmHg 79%

28 November, Saturday

Time Temperature Precipitation Wind Pressure Humidity
00:00 +8°C° 0 mm 1 mps 764 mmHg 78%
01:00 +8°C° 0 mm 1 mps 764 mmHg 77%
02:00 +6°C° 0 mm 2 mps 763 mmHg 76%
03:00 +6°C° 0 mm 2 mps 763 mmHg 77%
04:00 +6°C° 0 mm 2 mps 763 mmHg 77%
05:00 +6°C° 0 mm 2 mps 763 mmHg 78%
06:00 +6°C° 0 mm 2 mps 763 mmHg 79%
07:00 +6°C° 0 mm 2 mps 763 mmHg 79%
08:00 +6°C° 0 mm 2 mps 763 mmHg 79%
09:00 +8°C° 0 mm 2 mps 763 mmHg 73%
10:00 +9°C° 0 mm 2 mps 763 mmHg 66%
11:00 +12°C° 0 mm 2 mps 763 mmHg 59%
12:00 +13°C° 0 mm 2 mps 763 mmHg 56%
13:00 +14°C° 0 mm 2 mps 762 mmHg 53%
14:00 +15°C° 0 mm 2 mps 762 mmHg 50%
15:00 +13°C° 0 mm 2 mps 762 mmHg 55%
16:00 +12°C° 0 mm 1 mps 762 mmHg 61%
17:00 +11°C° 0 mm 1 mps 762 mmHg 66%
18:00 +10°C° 0 mm 1 mps 762 mmHg 68%
19:00 +10°C° 0 mm 1 mps 762 mmHg 70%
20:00 +9°C° 0 mm 1 mps 762 mmHg 72%
21:00 +9°C° 0 mm 1 mps 762 mmHg 74%
22:00 +9°C° 0 mm 1 mps 762 mmHg 76%
23:00 +9°C° 0 mm 1 mps 761 mmHg 78%

29 November, Sunday

Time Temperature Precipitation Wind Pressure Humidity
00:00 +9°C° 0 mm 1 mps 761 mmHg 78%
01:00 +9°C° 0 mm 1 mps 761 mmHg 78%
02:00 +8°C° 0 mm 1 mps 761 mmHg 78%
03:00 +8°C° 0 mm 1 mps 761 mmHg 79%
04:00 +8°C° 0 mm 1 mps 761 mmHg 79%
05:00 +8°C° 0 mm 1 mps 761 mmHg 79%
06:00 +8°C° 0 mm 1 mps 761 mmHg 78%
07:00 +7°C° 0 mm 0 mps 761 mmHg 77%
08:00 +7°C° 0 mm 0 mps 761 mmHg 76%
09:00 +9°C° 0 mm 1 mps 761 mmHg 72%
10:00 +10°C° 0 mm 1 mps 761 mmHg 69%
11:00 +10°C° 0 mm 2 mps 761 mmHg 65%
12:00 +10°C° 0.1 mm 2 mps 761 mmHg 69%
13:00 +10°C° 0.1 mm 3 mps 761 mmHg 74%
14:00 +9°C° 0.1 mm 3 mps 761 mmHg 78%
15:00 +9°C° 0.4 mm 3 mps 761 mmHg 80%
16:00 +8°C° 0.4 mm 4 mps 761 mmHg 82%
17:00 +7°C° 0.4 mm 4 mps 761 mmHg 84%
18:00 +7°C° 0.9 mm 4 mps 761 mmHg 88%
19:00 +7°C° 0.9 mm 4 mps 761 mmHg 91%
20:00 +7°C° 0.9 mm 4 mps 761 mmHg 94%
21:00 +8°C° 1.7 mm 4 mps 761 mmHg 94%
22:00 +8°C° 1.7 mm 4 mps 761 mmHg 95%
23:00 +8°C° 1.7 mm 5 mps 761 mmHg 95%

30 November, Monday

Time Temperature Precipitation Wind Pressure Humidity
00:00 +8°C° 0.9 mm 4 mps 760 mmHg 94%
01:00 +10°C° 0.9 mm 4 mps 760 mmHg 94%
02:00 +10°C° 0.9 mm 4 mps 760 mmHg 93%
03:00 +10°C° 0.7 mm 4 mps 759 mmHg 91%
04:00 +10°C° 0.7 mm 4 mps 759 mmHg 89%
05:00 +10°C° 0.7 mm 3 mps 759 mmHg 88%
06:00 +10°C° 0.3 mm 3 mps 759 mmHg 87%
07:00 +10°C° 0.3 mm 3 mps 759 mmHg 87%
08:00 +10°C° 0.3 mm 3 mps 759 mmHg 86%
09:00 +10°C° 1.1 mm 2 mps 759 mmHg 88%
10:00 +10°C° 1.1 mm 2 mps 760 mmHg 90%
11:00 +10°C° 1.1 mm 2 mps 760 mmHg 92%
12:00 +10°C° 0.4 mm 3 mps 759 mmHg 90%
13:00 +10°C° 0.4 mm 3 mps 759 mmHg 89%
14:00 +11°C° 0.4 mm 3 mps 759 mmHg 88%
15:00 +10°C° 0 mm 3 mps 759 mmHg 88%
16:00 +10°C° 0 mm 3 mps 759 mmHg 88%
17:00 +10°C° 0 mm 3 mps 759 mmHg 88%
18:00 +10°C° 0 mm 3 mps 759 mmHg 89%
19:00 +10°C° 0 mm 3 mps 759 mmHg 89%
20:00 +10°C° 0 mm 3 mps 759 mmHg 89%
21:00 +10°C° 0 mm 3 mps 759 mmHg 90%
22:00 +10°C° 0 mm 4 mps 759 mmHg 91%
23:00 +10°C° 0 mm 4 mps 759 mmHg 92%
Show more